Home   Weather   Porto Velho   Past weeks

Flag for Brazil Past Weather in Porto Velho, Rondônia, Brazil — Yesterday and Last 2 Weeks

Now
73 °F

Partly cloudy.


Feels Like: 72 °F
Forecast: 73 / 91 °F
Wind: 3 mph from Southeast

Location: Porto Velho Aeroporto

Current Time: Sep 27, 2016 at 6:37:55 AM

Latest Report: Sep 27, 2016 at 6:00 AM


Visibility: 5 mi

Pressure: 29.92 "Hg

Humidity: 89%

Dew Point: 70 °F

Location of Porto VelhoLocation

Past Weather in Porto Velho — Graph

°F

Porto Velho Temperature Yesterday

Maximum temperature yesterday: 93 °F (at 1:00 PM)
Minimum temperature yesterday: 73 °F (at 4:00 AM)
Average temperature yesterday: 80 °F

High & Low Weather Summary for the Past Weeks

 TemperatureHumidityPressure
High95 °F (Sep 12, 2:00 PM)100% (Sep 15, 6:00 PM)30.07 "Hg (Sep 15, 6:00 PM)
Low39 °F (Sep 15, 6:00 PM)36% (Sep 14, 1:00 PM)29.74 "Hg (Sep 12, 3:00 PM)
Average80 °F74%29.88 "Hg
* Reported Sep 12 5:00 AM — Sep 27 5:00 AM, Porto Velho, Weather by CustomWeather, © 2016

Note: Actual official high and low records may vary slightly from our data, if they occured in-between our weather recording intervals... More about our weather records

Advertising

Porto Velho Weather History for the Previous 24 Hours

Scroll right to see more
 ConditionsComfort  
Time TempWeatherWind HumidityBarometerVisibility
5:00 AM
Tue, Sep 27
73 °FPartly cloudy.5 mph89%29.89 "Hg5 mi
3:00 AM73 °FPartly cloudy.3 mph89%29.86 "HgN/A
2:00 AM72 °FPartly cloudy.2 mph94%29.89 "HgN/A
1:00 AM73 °FThundershowers. Passing clouds.2 mph89%29.89 "HgN/A
11:00 PM
Mon, Sep 26
77 °FPartly cloudy.7 mph83%29.92 "HgN/A
10:00 PM77 °FPassing clouds.5 mph89%29.89 "HgN/A
9:00 PM75 °FPassing clouds.2 mph89%29.86 "HgN/A
8:00 PM75 °FLight rain. Partly cloudy.2 mph89%N/AN/A
7:00 PM77 °FPartly cloudy.7 mph83%29.83 "HgN/A
6:00 PM79 °FBroken clouds.2 mph79%29.80 "HgN/A
5:00 PM81 °FThunderstorms. Partly sunny.8 mph74%N/AN/A
4:00 PM86 °FThunderstorms. Broken clouds.9 mph66%29.74 "HgN/A
3:00 PM90 °FScattered showers. Scattered clouds.5 mph55%N/AN/A
2:00 PM86 °FThunderstorms. Scattered clouds.9 mph59%29.77 "HgN/A
1:00 PM93 °FScattered clouds.8 mph47%29.83 "HgN/A
12:00 PM91 °FScattered clouds.5 mph52%29.86 "HgN/A
11:00 AM88 °FScattered clouds.7 mph59%29.89 "HgN/A
10:00 AM86 °FSunny.No wind62%29.89 "Hg10 mi
9:00 AM84 °FSunny.3 mph62%29.92 "Hg10 mi
8:00 AM79 °FScattered clouds.5 mph79%29.92 "HgN/A
7:00 AM75 °FScattered clouds.5 mph89%29.92 "Hg5 mi
6:00 AM73 °FPassing clouds.1 mph94%29.86 "Hg3 mi
Weather by CustomWeather, © 2016

See weather overviewHow to use our weather pages